Location: Unspecified
(0.0000°N, 0.0000°E)
Time: 17:23:39
(UTC+00:00)

A-11 Canister half - Visible Passes

Search period start: 04 May 2016 00:00
Search period end: 14 May 2016 00:00
Orbit: 1515 x 1685 km, 47.2° (Epoch: 03 May)

Date Brightness Start Highest point End Pass type
(mag) Time Alt. Az. Time Alt. Az. Time Alt. Az.
04 May 9.4 18:51:32 10° NW 19:01:33 69° SW 19:11:34 10° SSE visible
04 May 11.1 21:03:08 10° WSW 21:07:06 13° SW 21:09:49 11° SSW visible
05 May 9.4 18:28:33 10° NW 18:38:37 75° SW 18:48:47 10° SSE visible
05 May 11.0 20:39:11 10° WSW 20:44:04 14° SW 20:48:46 10° SSW visible
06 May 9.8 05:16:08 10° SSW 05:25:05 49° SE 05:33:52 10° ENE visible
06 May 9.4 18:05:36 10° NW 18:15:41 81° SW 18:25:54 10° SE visible
06 May 11.0 20:15:26 10° W 20:21:03 16° SW 20:26:42 10° S visible
07 May 9.8 04:53:22 10° SSW 05:02:12 45° SE 05:10:50 10° ENE visible
07 May 11.0 19:51:49 10° W 19:58:03 18° SW 20:04:18 10° S visible
08 May 9.9 04:30:36 10° SSW 04:39:17 41° SE 04:47:47 10° ENE visible
08 May 10.9 19:28:17 10° W 19:35:02 20° SW 19:41:50 10° S visible
09 May 10.0 04:08:49 13° SSW 04:16:23 38° SE 04:24:42 10° ENE visible
09 May 10.9 19:04:51 10° W 19:12:02 22° SW 19:19:18 10° S visible
10 May 10.1 03:47:49 19° S 03:53:29 34° SE 04:01:36 10° ENE visible
10 May 10.8 18:41:28 10° W 18:49:03 24° SW 18:56:44 10° S visible
11 May 10.1 03:26:48 24° SSE 03:30:33 32° SE 03:38:27 10° ENE visible
11 May 9.2 05:26:15 10° SW 05:35:16 53° NW 05:44:11 10° NNE visible
11 May 10.8 18:18:09 10° W 18:26:04 26° SW 18:34:07 10° S visible
12 May 10.2 03:05:46 27° SSE 03:07:38 29° SE 03:15:16 10° ENE visible
12 May 9.1 05:04:01 13° SW 05:12:23 58° NW 05:21:25 10° NNE visible
13 May 10.3 02:44:42 26° SE 02:44:42 26° SE 02:52:04 10° E visible
13 May 9.0 04:42:57 22° SW 04:49:31 64° NW 04:58:37 10° NNE visible
